Time,TemperatureF,DewpointF,PressureIn,WindDirection,WindDirectionDegrees,WindSpeedMPH,WindSpeedGustMPH,Humidity,HourlyPrecipIn,Conditions,Clouds,dailyrainin,SoftwareType,DateUTC
2013-10-02 00:00:00,18.0,15.6,30.03,North,360,1.0,1.0,90,0.00,,,0.00,Wunderground v.1.15,2013-10-02 08:00:00,
2013-10-02 00:05:00,17.6,15.2,30.03,North,355,1.0,2.0,90,0.00,,,0.00,Wunderground v.1.15,2013-10-02 08:05:00,
2013-10-02 00:10:00,17.8,15.9,30.03,North,350,2.0,2.0,92,0.00,,,0.00,Wunderground v.1.15,2013-10-02 08:10:00,
2013-10-02 00:15:00,17.5,15.3,30.04,North,350,2.0,2.0,91,0.00,,,0.00,Wunderground v.1.15,2013-10-02 08:15:00,
2013-10-02 00:20:00,17.2,15.0,30.03,North,350,2.0,2.0,91,0.00,,,0.00,Wunderground v.1.15,2013-10-02 08:20:00,
2013-10-02 00:25:00,17.3,15.4,30.03,North,350,2.0,2.0,92,0.00,,,0.00,Wunderground v.1.15,2013-10-02 08:25:00,
2013-10-02 00:30:00,17.5,15.6,30.03,North,350,2.0,2.0,92,0.00,,,0.00,Wunderground v.1.15,2013-10-02 08:30:00,
2013-10-02 00:35:00,17.3,15.1,30.03,NNW,339,2.0,2.0,91,0.00,,,0.00,Wunderground v.1.15,2013-10-02 08:35:00,
2013-10-02 00:45:00,16.6,14.4,30.03,NNW,338,1.0,2.0,91,0.00,,,0.00,Wunderground v.1.15,2013-10-02 08:45:00,
2013-10-02 00:50:00,16.4,14.2,30.03,NNW,338,1.0,1.0,91,0.00,,,0.00,Wunderground v.1.15,2013-10-02 08:50:00,
2013-10-02 00:55:00,16.2,14.0,30.03,NNW,338,2.0,2.0,91,0.00,,,0.00,Wunderground v.1.15,2013-10-02 08:55:00,
2013-10-02 01:00:00,16.2,14.0,30.03,NNW,338,2.0,2.0,91,0.00,,,0.00,Wunderground v.1.15,2013-10-02 09:00:00,
2013-10-02 01:05:00,16.2,14.0,30.03,NNW,338,1.0,2.0,91,0.00,,,0.00,Wunderground v.1.15,2013-10-02 09:05:00,
2013-10-02 01:10:00,16.2,14.0,30.03,NNW,338,0.0,0.0,91,0.00,,,0.00,Wunderground v.1.15,2013-10-02 09:10:00,
2013-10-02 01:15:00,16.0,13.6,30.03,NNW,338,0.0,0.0,90,0.00,,,0.00,Wunderground v.1.15,2013-10-02 09:15:00,
2013-10-02 01:20:00,15.9,13.7,30.04,NNW,338,0.0,0.0,91,0.00,,,0.00,Wunderground v.1.15,2013-10-02 09:20:00,
2013-10-02 01:25:00,15.9,13.7,30.04,NNW,338,0.0,0.0,91,0.00,,,0.00,Wunderground v.1.15,2013-10-02 09:25:00,
2013-10-02 01:30:00,15.7,13.5,30.04,NNW,338,0.0,0.0,91,0.00,,,0.00,Wunderground v.1.15,2013-10-02 09:30:00,
2013-10-02 01:35:00,15.6,13.4,30.03,NNW,338,1.0,1.0,91,0.00,,,0.00,Wunderground v.1.15,2013-10-02 09:35:00,
2013-10-02 01:40:00,15.3,13.1,30.03,NNW,338,1.0,3.0,91,0.00,,,0.00,Wunderground v.1.15,2013-10-02 09:40:00,
2013-10-02 01:45:00,15.5,13.6,30.03,NNW,338,2.0,3.0,92,0.00,,,0.00,Wunderground v.1.15,2013-10-02 09:45:00,
2013-10-02 01:50:00,15.2,13.0,30.03,NNW,338,2.0,2.0,91,0.00,,,0.00,Wunderground v.1.15,2013-10-02 09:50:00,
2013-10-02 01:55:00,15.0,12.8,30.03,NNW,338,1.0,2.0,91,0.00,,,0.00,Wunderground v.1.15,2013-10-02 09:55:00,
2013-10-02 02:00:00,14.9,12.7,30.03,NNW,338,1.0,1.0,91,0.00,,,0.00,Wunderground v.1.15,2013-10-02 10:00:00,
2013-10-02 02:05:00,14.9,12.7,30.03,NNW,338,1.0,1.0,91,0.00,,,0.00,Wunderground v.1.15,2013-10-02 10:05:00,
2013-10-02 02:10:00,14.9,12.7,30.03,NNW,338,1.0,1.0,91,0.00,,,0.00,Wunderground v.1.15,2013-10-02 10:10:00,
2013-10-02 02:15:00,14.9,12.7,30.03,NNW,338,1.0,1.0,91,0.00,,,0.00,Wunderground v.1.15,2013-10-02 10:15:00,
2013-10-02 02:20:00,14.8,12.6,30.03,NNW,338,1.0,1.0,91,0.00,,,0.00,Wunderground v.1.15,2013-10-02 10:20:00,
2013-10-02 02:25:00,14.6,12.5,30.03,NNW,338,2.0,2.0,91,0.00,,,0.00,Wunderground v.1.15,2013-10-02 10:25:00,
2013-10-02 02:30:00,14.5,12.4,30.03,NNW,338,2.0,2.0,91,0.00,,,0.00,Wunderground v.1.15,2013-10-02 10:30:00,
2013-10-02 02:35:00,14.5,12.4,30.03,NNW,338,2.0,2.0,91,0.00,,,0.00,Wunderground v.1.15,2013-10-02 10:35:00,
2013-10-02 02:40:00,14.5,12.4,30.03,NNW,338,2.0,2.0,91,0.00,,,0.00,Wunderground v.1.15,2013-10-02 10:40:00,
2013-10-02 02:45:00,14.6,12.5,30.03,NNW,338,2.0,2.0,91,0.00,,,0.00,Wunderground v.1.15,2013-10-02 10:45:00,
2013-10-02 02:50:00,14.8,12.6,30.03,NNW,338,2.0,3.0,91,0.00,,,0.00,Wunderground v.1.15,2013-10-02 10:50:00,
2013-10-02 03:00:00,14.5,12.1,30.03,NNW,338,2.0,2.0,90,0.00,,,0.00,Wunderground v.1.15,2013-10-02 11:00:00,
2013-10-02 03:05:00,14.4,12.3,30.02,NNW,338,1.0,2.0,91,0.00,,,0.00,Wunderground v.1.15,2013-10-02 11:05:00,
2013-10-02 03:10:00,14.5,12.4,30.03,NNW,338,1.0,1.0,91,0.00,,,0.00,Wunderground v.1.15,2013-10-02 11:10:00,
2013-10-02 03:15:00,14.4,12.3,30.03,NNW,338,1.0,1.0,91,0.00,,,0.00,Wunderground v.1.15,2013-10-02 11:15:00,
2013-10-02 03:20:00,14.5,12.4,30.02,NNW,338,1.0,1.0,91,0.00,,,0.00,Wunderground v.1.15,2013-10-02 11:20:00,
2013-10-02 03:25:00,14.5,12.4,30.02,NNW,334,1.0,1.0,91,0.00,,,0.00,Wunderground v.1.15,2013-10-02 11:25:00,
2013-10-02 03:30:00,14.4,12.3,30.02,NNW,334,1.0,1.0,91,0.00,,,0.00,Wunderground v.1.15,2013-10-02 11:30:00,
2013-10-02 03:35:00,14.4,12.3,30.02,NNW,334,1.0,1.0,91,0.00,,,0.00,Wunderground v.1.15,2013-10-02 11:35:00,
2013-10-02 03:40:00,14.5,12.4,30.02,NNW,334,1.0,1.0,91,0.00,,,0.00,Wunderground v.1.15,2013-10-02 11:40:00,
2013-10-02 03:45:00,14.5,12.4,30.02,NNW,333,1.0,1.0,91,0.00,,,0.00,Wunderground v.1.15,2013-10-02 11:45:00,
2013-10-02 03:50:00,14.3,11.9,30.02,NNW,333,1.0,1.0,90,0.00,,,0.00,Wunderground v.1.15,2013-10-02 11:50:00,
2013-10-02 03:55:00,14.2,12.1,30.02,NNW,333,1.0,1.0,91,0.00,,,0.00,Wunderground v.1.15,2013-10-02 11:55:00,
2013-10-02 04:00:00,14.3,12.2,30.02,NNW,333,1.0,1.0,91,0.00,,,0.00,Wunderground v.1.15,2013-10-02 12:00:00,
2013-10-02 04:05:00,14.4,12.3,30.02,NNW,333,1.0,1.0,91,0.00,,,0.00,Wunderground v.1.15,2013-10-02 12:05:00,
2013-10-02 04:10:00,14.4,12.3,30.01,NNW,333,1.0,2.0,91,0.00,,,0.00,Wunderground v.1.15,2013-10-02 12:10:00,
2013-10-02 04:15:00,14.5,12.4,30.01,NNW,333,1.0,2.0,91,0.00,,,0.00,Wunderground v.1.15,2013-10-02 12:15:00,
2013-10-02 04:20:00,14.6,12.7,30.01,NNW,333,1.0,1.0,92,0.00,,,0.00,Wunderground v.1.15,2013-10-02 12:20:00,
2013-10-02 04:25:00,14.8,12.9,30.01,NNW,333,1.0,1.0,92,0.00,,,0.00,Wunderground v.1.15,2013-10-02 12:25:00,
2013-10-02 04:30:00,15.3,13.6,30.01,SE,135,0.0,0.0,93,0.00,,,0.00,Wunderground v.1.15,2013-10-02 12:30:00,
2013-10-02 04:35:00,15.4,13.7,30.01,SE,135,0.0,0.0,93,0.00,,,0.00,Wunderground v.1.15,2013-10-02 12:35:00,
2013-10-02 04:40:00,15.5,13.8,30.01,SE,135,0.0,0.0,93,0.00,,,0.00,Wunderground v.1.15,2013-10-02 12:40:00,
2013-10-02 04:45:00,15.5,13.8,30.01,SE,135,0.0,0.0,93,0.00,,,0.00,Wunderground v.1.15,2013-10-02 12:45:00,
2013-10-02 04:50:00,15.5,13.8,30.01,SE,135,0.0,0.0,93,0.00,,,0.00,Wunderground v.1.15,2013-10-02 12:50:00,
2013-10-02 04:55:00,15.5,13.8,30.01,SE,135,0.0,0.0,93,0.00,,,0.00,Wunderground v.1.15,2013-10-02 12:55:00,
2013-10-02 05:05:00,15.7,14.0,30.01,SE,135,0.0,1.0,93,0.00,,,0.00,Wunderground v.1.15,2013-10-02 13:05:00,
2013-10-02 05:10:00,15.7,14.0,30.00,SE,135,0.0,0.0,93,0.00,,,0.00,Wunderground v.1.15,2013-10-02 13:10:00,
2013-10-02 05:15:00,14.9,12.7,30.00,NNW,334,0.0,1.0,91,0.00,,,0.00,Wunderground v.1.15,2013-10-02 13:15:00,
2013-10-02 05:20:00,14.9,12.7,30.00,NNW,334,1.0,2.0,91,0.00,,,0.00,Wunderground v.1.15,2013-10-02 13:20:00,
2013-10-02 05:25:00,15.0,13.1,30.00,NNW,334,1.0,2.0,92,0.00,,,0.00,Wunderground v.1.15,2013-10-02 13:25:00,
2013-10-02 05:30:00,14.9,12.7,30.00,NNW,346,2.0,2.0,91,0.00,,,0.00,Wunderground v.1.15,2013-10-02 13:30:00,
2013-10-02 05:35:00,15.0,12.8,30.00,NNW,346,2.0,2.0,91,0.00,,,0.00,Wunderground v.1.15,2013-10-02 13:35:00,
2013-10-02 05:40:00,15.0,12.8,30.00,NNW,346,1.0,1.0,91,0.00,,,0.00,Wunderground v.1.15,2013-10-02 13:40:00,
2013-10-02 05:45:00,15.0,13.1,30.00,NNW,346,1.0,2.0,92,0.00,,,0.00,Wunderground v.1.15,2013-10-02 13:45:00,
2013-10-02 05:50:00,15.1,13.2,30.00,NNW,346,1.0,1.0,92,0.00,,,0.00,Wunderground v.1.15,2013-10-02 13:50:00,
2013-10-02 05:55:00,15.1,12.9,30.00,NNW,346,1.0,2.0,91,0.00,,,0.00,Wunderground v.1.15,2013-10-02 13:55:00,
2013-10-02 06:00:00,15.0,12.8,30.00,NNW,342,2.0,2.0,91,0.00,,,0.00,Wunderground v.1.15,2013-10-02 14:00:00,
2013-10-02 06:05:00,15.2,13.3,30.00,NNW,342,2.0,2.0,92,0.00,,,0.00,Wunderground v.1.15,2013-10-02 14:05:00,
2013-10-02 06:10:00,15.2,13.0,30.00,NNW,342,1.0,1.0,91,0.00,,,0.00,Wunderground v.1.15,2013-10-02 14:10:00,
2013-10-02 06:15:00,15.1,12.9,30.00,NNW,342,1.0,2.0,91,0.00,,,0.00,Wunderground v.1.15,2013-10-02 14:15:00,
2013-10-02 06:20:00,15.2,13.0,30.00,NNW,342,2.0,2.0,91,0.00,,,0.00,Wunderground v.1.15,2013-10-02 14:20:00,
2013-10-02 06:25:00,15.1,12.9,30.00,NNW,342,2.0,2.0,91,0.00,,,0.00,Wunderground v.1.15,2013-10-02 14:25:00,
2013-10-02 06:30:00,15.0,12.8,30.00,NNW,342,1.0,1.0,91,0.00,,,0.00,Wunderground v.1.15,2013-10-02 14:30:00,
2013-10-02 06:35:00,15.7,13.8,30.00,SE,135,1.0,1.0,92,0.00,,,0.00,Wunderground v.1.15,2013-10-02 14:35:00,
2013-10-02 06:40:00,15.7,13.8,30.00,SE,135,0.0,0.0,92,0.00,,,0.00,Wunderground v.1.15,2013-10-02 14:40:00,
2013-10-02 06:45:00,15.5,13.6,30.00,SE,135,0.0,0.0,92,0.00,,,0.00,Wunderground v.1.15,2013-10-02 14:45:00,
2013-10-02 06:50:00,15.5,13.8,30.00,SE,135,0.0,0.0,93,0.00,,,0.00,Wunderground v.1.15,2013-10-02 14:50:00,
2013-10-02 06:55:00,15.7,14.0,30.00,SE,135,0.0,0.0,93,0.00,,,0.00,Wunderground v.1.15,2013-10-02 14:55:00,
2013-10-02 07:00:00,15.7,14.0,30.00,SE,135,0.0,0.0,93,0.00,,,0.00,Wunderground v.1.15,2013-10-02 15:00:00,
2013-10-02 07:05:00,15.7,14.0,30.00,SE,135,0.0,0.0,93,0.00,,,0.00,Wunderground v.1.15,2013-10-02 15:05:00,
2013-10-02 07:10:00,15.8,14.1,30.00,SE,135,0.0,0.0,93,0.00,,,0.00,Wunderground v.1.15,2013-10-02 15:10:00,
2013-10-02 07:20:00,15.9,14.2,30.00,SE,135,0.0,0.0,93,0.00,,,0.00,Wunderground v.1.15,2013-10-02 15:20:00,
2013-10-02 07:25:00,15.8,14.1,30.00,SE,135,0.0,0.0,93,0.00,,,0.00,Wunderground v.1.15,2013-10-02 15:25:00,
2013-10-02 07:30:00,15.8,14.1,30.00,SE,135,0.0,0.0,93,0.00,,,0.00,Wunderground v.1.15,2013-10-02 15:30:00,
2013-10-02 07:40:00,15.9,14.2,30.00,SE,135,0.0,0.0,93,0.00,,,0.00,Wunderground v.1.15,2013-10-02 15:40:00,
2013-10-02 07:45:00,15.9,14.2,30.00,SE,135,0.0,0.0,93,0.00,,,0.00,Wunderground v.1.15,2013-10-02 15:45:00,
2013-10-02 07:50:00,15.8,14.1,30.00,SE,135,0.0,0.0,93,0.00,,,0.00,Wunderground v.1.15,2013-10-02 15:50:00,
2013-10-02 07:55:00,15.7,13.8,30.00,SE,135,0.0,0.0,92,0.00,,,0.00,Wunderground v.1.15,2013-10-02 15:55:00,
2013-10-02 08:00:00,15.5,13.6,30.00,SE,135,0.0,0.0,92,0.00,,,0.00,Wunderground v.1.15,2013-10-02 16:00:00,
2013-10-02 08:05:00,15.3,13.4,30.00,SE,135,0.0,0.0,92,0.00,,,0.00,Wunderground v.1.15,2013-10-02 16:05:00,
2013-10-02 08:10:00,15.1,13.2,30.00,SE,135,0.0,0.0,92,0.00,,,0.00,Wunderground v.1.15,2013-10-02 16:10:00,
2013-10-02 08:15:00,15.0,13.1,30.00,SE,135,0.0,0.0,92,0.00,,,0.00,Wunderground v.1.15,2013-10-02 16:15:00,
2013-10-02 08:20:00,14.8,12.9,30.00,SE,135,0.0,0.0,92,0.00,,,0.00,Wunderground v.1.15,2013-10-02 16:20:00,
2013-10-02 08:25:00,14.7,12.8,30.00,SE,135,0.0,0.0,92,0.00,,,0.00,Wunderground v.1.15,2013-10-02 16:25:00,
2013-10-02 08:30:00,14.5,12.6,30.00,SE,135,0.0,0.0,92,0.00,,,0.00,Wunderground v.1.15,2013-10-02 16:30:00,
2013-10-02 08:35:00,14.4,12.5,30.00,SE,135,0.0,0.0,92,0.00,,,0.00,Wunderground v.1.15,2013-10-02 16:35:00,
2013-10-02 08:40:00,14.2,12.3,30.01,SE,135,0.0,0.0,92,0.00,,,0.00,Wunderground v.1.15,2013-10-02 16:40:00,
2013-10-02 08:45:00,14.0,12.1,30.00,SE,135,0.0,0.0,92,0.00,,,0.00,Wunderground v.1.15,2013-10-02 16:45:00,
2013-10-02 08:50:00,13.9,12.0,30.01,SE,135,0.0,0.0,92,0.00,,,0.00,Wunderground v.1.15,2013-10-02 16:50:00,
2013-10-02 08:55:00,13.9,12.0,30.00,SE,135,0.0,0.0,92,0.00,,,0.00,Wunderground v.1.15,2013-10-02 16:55:00,
2013-10-02 09:00:00,13.9,12.0,30.00,SE,135,0.0,0.0,92,0.00,,,0.00,Wunderground v.1.15,2013-10-02 17:00:00,
2013-10-02 09:05:00,13.7,11.8,30.00,SE,135,0.0,0.0,92,0.00,,,0.00,Wunderground v.1.15,2013-10-02 17:05:00,
2013-10-02 09:10:00,13.5,11.4,30.00,SE,135,0.0,0.0,91,0.00,,,0.00,Wunderground v.1.15,2013-10-02 17:10:00,
2013-10-02 09:15:00,13.4,11.5,30.00,SE,135,0.0,0.0,92,0.00,,,0.00,Wunderground v.1.15,2013-10-02 17:15:00,
2013-10-02 09:20:00,13.4,11.5,30.00,SE,135,0.0,0.0,92,0.00,,,0.00,Wunderground v.1.15,2013-10-02 17:20:00,
2013-10-02 09:25:00,13.4,11.5,30.00,SE,135,0.0,0.0,92,0.00,,,0.00,Wunderground v.1.15,2013-10-02 17:25:00,
2013-10-02 09:30:00,13.3,11.4,30.00,SE,135,0.0,0.0,92,0.00,,,0.00,Wunderground v.1.15,2013-10-02 17:30:00,
2013-10-02 09:35:00,13.3,11.4,30.00,SE,135,0.0,0.0,92,0.00,,,0.00,Wunderground v.1.15,2013-10-02 17:35:00,
2013-10-02 09:40:00,13.3,11.4,30.00,SE,135,0.0,0.0,92,0.00,,,0.00,Wunderground v.1.15,2013-10-02 17:40:00,
2013-10-02 09:45:00,13.3,11.4,30.00,SE,135,0.0,0.0,92,0.00,,,0.00,Wunderground v.1.15,2013-10-02 17:45:00,
2013-10-02 09:50:00,13.3,11.4,30.00,SE,135,0.0,0.0,92,0.00,,,0.00,Wunderground v.1.15,2013-10-02 17:50:00,
2013-10-02 09:55:00,12.3,10.2,30.00,NNW,341,0.0,0.0,91,0.00,,,0.00,Wunderground v.1.15,2013-10-02 17:55:00,
2013-10-02 10:00:00,12.3,9.9,30.00,NNW,341,0.0,0.0,90,0.00,,,0.00,Wunderground v.1.15,2013-10-02 18:00:00,
2013-10-02 10:05:00,12.5,10.4,30.00,NNW,341,0.0,0.0,91,0.00,,,0.00,Wunderground v.1.15,2013-10-02 18:05:00,
2013-10-02 10:10:00,13.0,11.1,30.00,NNW,341,0.0,0.0,92,0.00,,,0.00,Wunderground v.1.15,2013-10-02 18:10:00,
2013-10-02 10:15:00,13.7,12.1,30.00,NNW,341,0.0,0.0,93,0.00,,,0.00,Wunderground v.1.15,2013-10-02 18:15:00,
2013-10-02 10:20:00,14.2,12.5,30.00,NNW,341,0.0,0.0,93,0.00,,,0.00,Wunderground v.1.15,2013-10-02 18:20:00,
2013-10-02 10:25:00,15.0,13.6,30.00,NNW,341,0.0,0.0,94,0.00,,,0.00,Wunderground v.1.15,2013-10-02 18:25:00,
2013-10-02 10:30:00,15.9,14.5,30.00,NNW,341,0.0,1.0,94,0.00,,,0.00,Wunderground v.1.15,2013-10-02 18:30:00,
2013-10-02 10:35:00,16.6,15.2,30.00,NNW,342,0.0,1.0,94,0.00,,,0.00,Wunderground v.1.15,2013-10-02 18:35:00,
2013-10-02 10:40:00,17.3,15.9,30.00,NNW,342,0.0,0.0,94,0.00,,,0.00,Wunderground v.1.15,2013-10-02 18:40:00,
2013-10-02 10:45:00,18.5,17.1,30.00,SE,135,0.0,0.0,94,0.00,,,0.00,Wunderground v.1.15,2013-10-02 18:45:00,
2013-10-02 10:50:00,19.2,17.8,30.00,SE,135,0.0,0.0,94,0.00,,,0.00,Wunderground v.1.15,2013-10-02 18:50:00,
2013-10-02 10:55:00,20.5,19.3,30.00,SE,135,0.0,0.0,95,0.00,,,0.00,Wunderground v.1.15,2013-10-02 18:55:00,
2013-10-02 11:00:00,21.8,20.3,30.00,SE,135,0.0,0.0,94,0.00,,,0.00,Wunderground v.1.15,2013-10-02 19:00:00,
2013-10-02 11:05:00,22.7,21.0,30.00,SE,135,0.0,0.0,93,0.00,,,0.00,Wunderground v.1.15,2013-10-02 19:05:00,
2013-10-02 11:10:00,23.1,20.9,30.00,SE,135,0.0,0.0,91,0.00,,,0.00,Wunderground v.1.15,2013-10-02 19:10:00,
2013-10-02 11:15:00,23.8,21.6,30.00,SE,135,0.0,0.0,91,0.00,,,0.00,Wunderground v.1.15,2013-10-02 19:15:00,
2013-10-02 11:20:00,24.3,21.8,30.00,SE,135,0.0,0.0,90,0.00,,,0.00,Wunderground v.1.15,2013-10-02 19:20:00,
2013-10-02 11:25:00,24.7,21.7,30.00,SE,135,0.0,0.0,88,0.00,,,0.00,Wunderground v.1.15,2013-10-02 19:25:00,
2013-10-02 11:35:00,25.3,22.0,30.00,SE,135,0.0,0.0,87,0.00,,,0.00,Wunderground v.1.15,2013-10-02 19:35:00,
2013-10-02 11:40:00,26.0,22.9,30.00,SE,135,0.0,0.0,88,0.00,,,0.00,Wunderground v.1.15,2013-10-02 19:40:00,
2013-10-02 11:45:00,26.7,23.1,30.00,SE,135,0.0,0.0,86,0.00,,,0.00,Wunderground v.1.15,2013-10-02 19:45:00,
2013-10-02 11:50:00,27.5,23.6,29.99,SE,135,0.0,0.0,85,0.00,,,0.00,Wunderground v.1.15,2013-10-02 19:50:00,
2013-10-02 11:55:00,28.2,24.3,29.99,SE,135,0.0,0.0,85,0.00,,,0.00,Wunderground v.1.15,2013-10-02 19:55:00,
2013-10-02 12:00:00,28.7,24.2,29.99,SE,135,0.0,0.0,83,0.00,,,0.00,Wunderground v.1.15,2013-10-02 20:00:00,
2013-10-02 12:05:00,29.3,24.8,29.99,SE,135,0.0,0.0,83,0.00,,,0.00,Wunderground v.1.15,2013-10-02 20:05:00,
2013-10-02 12:10:00,29.7,24.6,29.99,SE,135,0.0,0.0,81,0.00,,,0.00,Wunderground v.1.15,2013-10-02 20:10:00,
2013-10-02 12:15:00,29.8,24.4,29.99,SE,135,0.0,0.0,80,0.00,,,0.00,Wunderground v.1.15,2013-10-02 20:15:00,
2013-10-02 12:20:00,29.5,24.1,29.99,SE,135,0.0,0.0,80,0.00,,,0.00,Wunderground v.1.15,2013-10-02 20:20:00,
2013-10-02 12:30:00,29.7,24.6,29.99,SE,135,0.0,0.0,81,0.00,,,0.00,Wunderground v.1.15,2013-10-02 20:30:00,
2013-10-02 12:35:00,30.1,25.0,29.98,SE,135,0.0,0.0,81,0.00,,,0.00,Wunderground v.1.15,2013-10-02 20:35:00,
2013-10-02 12:45:00,30.7,25.3,29.98,SE,135,0.0,0.0,80,0.00,,,0.00,Wunderground v.1.15,2013-10-02 20:45:00,
2013-10-02 12:50:00,31.0,25.2,29.98,SE,135,0.0,0.0,79,0.00,,,0.00,Wunderground v.1.15,2013-10-02 20:50:00,
2013-10-02 12:55:00,31.2,25.1,29.98,SE,135,0.0,0.0,78,0.00,,,0.00,Wunderground v.1.15,2013-10-02 20:55:00,
2013-10-02 13:00:00,31.6,25.2,29.98,SE,135,0.0,0.0,77,0.00,,,0.00,Wunderground v.1.15,2013-10-02 21:00:00,
2013-10-02 13:05:00,31.6,24.9,29.98,SE,135,0.0,0.0,76,0.00,,,0.00,Wunderground v.1.15,2013-10-02 21:05:00,
2013-10-02 13:10:00,31.5,24.5,29.98,SE,135,0.0,0.0,75,0.00,,,0.00,Wunderground v.1.15,2013-10-02 21:10:00,
2013-10-02 13:20:00,31.7,24.7,29.98,SE,135,0.0,0.0,75,0.00,,,0.00,Wunderground v.1.15,2013-10-02 21:20:00,
2013-10-02 13:25:00,32.3,24.9,29.98,SE,135,0.0,0.0,74,0.00,,,0.00,Wunderground v.1.15,2013-10-02 21:25:00,
2013-10-02 13:30:00,32.8,25.1,29.98,SE,135,0.0,0.0,73,0.00,,,0.00,Wunderground v.1.15,2013-10-02 21:30:00,
2013-10-02 13:35:00,33.5,25.4,29.98,SE,135,0.0,0.0,72,0.00,,,0.00,Wunderground v.1.15,2013-10-02 21:35:00,
2013-10-02 13:40:00,34.3,26.2,29.97,SE,135,0.0,0.0,72,0.00,,,0.00,Wunderground v.1.15,2013-10-02 21:40:00,
2013-10-02 13:45:00,34.6,25.5,29.98,SE,135,0.0,0.0,69,0.00,,,0.00,Wunderground v.1.15,2013-10-02 21:45:00,
2013-10-02 13:50:00,35.1,25.6,29.98,SE,135,0.0,0.0,68,0.00,,,0.00,Wunderground v.1.15,2013-10-02 21:50:00,
2013-10-02 13:55:00,35.3,25.8,29.98,SE,135,0.0,0.0,68,0.00,,,0.00,Wunderground v.1.15,2013-10-02 21:55:00,
2013-10-02 14:00:00,35.3,25.4,29.98,SE,135,0.0,0.0,67,0.00,,,0.00,Wunderground v.1.15,2013-10-02 22:00:00,
2013-10-02 14:05:00,34.8,25.0,29.98,NNE,15,1.0,6.0,67,0.00,,,0.00,Wunderground v.1.15,2013-10-02 22:05:00,
2013-10-02 14:10:00,34.2,25.1,29.98,NNW,336,3.0,3.0,69,0.00,,,0.00,Wunderground v.1.15,2013-10-02 22:10:00,
2013-10-02 14:15:00,34.6,25.5,29.97,NNW,336,2.0,3.0,69,0.00,,,0.00,Wunderground v.1.15,2013-10-02 22:15:00,
2013-10-02 14:20:00,34.9,25.4,29.97,NNW,327,1.0,1.0,68,0.00,,,0.00,Wunderground v.1.15,2013-10-02 22:20:00,
2013-10-02 14:25:00,35.1,25.2,29.97,NW,325,1.0,1.0,67,0.00,,,0.00,Wunderground v.1.15,2013-10-02 22:25:00,
2013-10-02 14:30:00,35.5,26.0,29.97,WNW,292,1.0,4.0,68,0.00,,,0.00,Wunderground v.1.15,2013-10-02 22:30:00,
2013-10-02 14:35:00,35.6,25.4,29.97,WNW,290,1.0,4.0,66,0.00,,,0.00,Wunderground v.1.15,2013-10-02 22:35:00,
2013-10-02 14:40:00,35.6,25.4,29.97,WNW,292,1.0,1.0,66,0.00,,,0.00,Wunderground v.1.15,2013-10-02 22:40:00,
2013-10-02 14:45:00,35.6,25.0,29.97,NNE,19,1.0,1.0,65,0.00,,,0.00,Wunderground v.1.15,2013-10-02 22:45:00,
2013-10-02 14:50:00,35.5,24.9,29.97,North,355,1.0,5.0,65,0.00,,,0.00,Wunderground v.1.15,2013-10-02 22:50:00,
2013-10-02 14:55:00,35.2,24.6,29.97,NNE,18,3.0,8.0,65,0.00,,,0.00,Wunderground v.1.15,2013-10-02 22:55:00,
2013-10-02 15:00:00,34.6,24.8,29.96,North,355,6.0,10.0,67,0.00,,,0.00,Wunderground v.1.15,2013-10-02 23:00:00,
2013-10-02 15:10:00,33.9,24.8,29.96,North,5,10.0,12.0,69,0.00,,,0.00,Wunderground v.1.15,2013-10-02 23:10:00,
2013-10-02 15:15:00,33.7,24.6,29.96,NNE,20,9.0,12.0,69,0.00,,,0.00,Wunderground v.1.15,2013-10-02 23:15:00,
2013-10-02 15:20:00,33.8,24.7,29.96,North,360,9.0,9.0,69,0.00,,,0.00,Wunderground v.1.15,2013-10-02 23:20:00,
2013-10-02 15:25:00,33.8,24.7,29.96,NNW,344,8.0,9.0,69,0.00,,,0.00,Wunderground v.1.15,2013-10-02 23:25:00,
2013-10-02 15:30:00,33.8,24.7,29.96,NW,319,9.0,9.0,69,0.00,,,0.00,Wunderground v.1.15,2013-10-02 23:30:00,
2013-10-02 15:35:00,33.8,24.4,29.96,NNW,346,8.0,9.0,68,0.00,,,0.00,Wunderground v.1.15,2013-10-02 23:35:00,
2013-10-02 15:40:00,33.8,24.4,29.96,NNW,331,8.0,9.0,68,0.00,,,0.00,Wunderground v.1.15,2013-10-02 23:40:00,
2013-10-02 15:45:00,33.9,24.4,29.96,NE,48,8.0,9.0,68,0.00,,,0.00,Wunderground v.1.15,2013-10-02 23:45:00,
2013-10-02 15:50:00,34.1,24.6,29.96,North,360,7.0,13.0,68,0.00,,,0.00,Wunderground v.1.15,2013-10-02 23:50:00,
2013-10-02 15:55:00,33.9,24.1,29.96,NE,34,8.0,13.0,67,0.00,,,0.00,Wunderground v.1.15,2013-10-02 23:55:00,
2013-10-02 16:00:00,34.1,24.6,29.95,NW,325,7.0,7.0,68,0.00,,,0.00,Wunderground v.1.15,2013-10-03 00:00:00,
2013-10-02 16:05:00,34.4,24.6,29.95,NW,319,6.0,7.0,67,0.00,,,0.00,Wunderground v.1.15,2013-10-03 00:05:00,
2013-10-02 16:10:00,34.4,24.2,29.95,NW,320,6.0,6.0,66,0.00,,,0.00,Wunderground v.1.15,2013-10-03 00:10:00,
2013-10-02 16:15:00,34.4,24.2,29.95,NNW,331,6.0,6.0,66,0.00,,,0.00,Wunderground v.1.15,2013-10-03 00:15:00,
2013-10-02 16:20:00,34.4,24.2,29.95,NNW,339,4.0,6.0,66,0.00,,,0.00,Wunderground v.1.15,2013-10-03 00:20:00,
2013-10-02 16:25:00,34.4,23.8,29.95,NNE,19,4.0,7.0,65,0.00,,,0.00,Wunderground v.1.15,2013-10-03 00:25:00,
2013-10-02 16:30:00,34.5,24.3,29.95,North,350,5.0,6.0,66,0.00,,,0.00,Wunderground v.1.15,2013-10-03 00:30:00,
2013-10-02 16:35:00,34.6,24.0,29.94,North,11,6.0,10.0,65,0.00,,,0.00,Wunderground v.1.15,2013-10-03 00:35:00,
2013-10-02 16:40:00,34.6,24.0,29.95,NNW,346,7.0,10.0,65,0.00,,,0.00,Wunderground v.1.15,2013-10-03 00:40:00,
2013-10-02 16:45:00,34.6,24.0,29.95,NNE,23,7.0,10.0,65,0.00,,,0.00,Wunderground v.1.15,2013-10-03 00:45:00,
2013-10-02 16:50:00,34.4,23.8,29.94,NNE,12,7.0,7.0,65,0.00,,,0.00,Wunderground v.1.15,2013-10-03 00:50:00,
2013-10-02 16:55:00,34.6,24.0,29.94,North,355,5.0,8.0,65,0.00,,,0.00,Wunderground v.1.15,2013-10-03 00:55:00,
2013-10-02 17:00:00,34.7,23.8,29.94,NNE,30,5.0,5.0,64,0.00,,,0.00,Wunderground v.1.15,2013-10-03 01:00:00,
2013-10-02 17:05:00,34.8,24.2,29.94,North,350,5.0,7.0,65,0.00,,,0.00,Wunderground v.1.15,2013-10-03 01:05:00,
2013-10-02 17:10:00,34.8,24.2,29.94,North,5,3.0,4.0,65,0.00,,,0.00,Wunderground v.1.15,2013-10-03 01:10:00,
2013-10-02 17:15:00,34.8,24.2,29.94,North,351,2.0,5.0,65,0.00,,,0.00,Wunderground v.1.15,2013-10-03 01:15:00,
2013-10-02 17:20:00,34.7,24.1,29.94,NNE,32,3.0,4.0,65,0.00,,,0.00,Wunderground v.1.15,2013-10-03 01:20:00,
2013-10-02 17:25:00,34.8,24.2,29.94,North,5,5.0,5.0,65,0.00,,,0.00,Wunderground v.1.15,2013-10-03 01:25:00,
2013-10-02 17:30:00,35.0,24.0,29.94,North,5,4.0,6.0,64,0.00,,,0.00,Wunderground v.1.15,2013-10-03 01:30:00,
2013-10-02 17:35:00,35.2,24.2,29.94,NNE,14,3.0,6.0,64,0.00,,,0.00,Wunderground v.1.15,2013-10-03 01:35:00,
2013-10-02 17:40:00,35.3,24.0,29.94,NNW,347,4.0,4.0,63,0.00,,,0.00,Wunderground v.1.15,2013-10-03 01:40:00,
2013-10-02 17:45:00,35.3,24.0,29.94,NNE,32,4.0,4.0,63,0.00,,,0.00,Wunderground v.1.15,2013-10-03 01:45:00,
2013-10-02 17:50:00,35.2,23.9,29.94,NNW,342,4.0,4.0,63,0.00,,,0.00,Wunderground v.1.15,2013-10-03 01:50:00,
2013-10-02 17:55:00,34.9,23.9,29.94,NNW,336,4.0,4.0,64,0.00,,,0.00,Wunderground v.1.15,2013-10-03 01:55:00,
2013-10-02 18:05:00,34.9,23.9,29.93,North,5,4.0,4.0,64,0.00,,,0.00,Wunderground v.1.15,2013-10-03 02:05:00,
2013-10-02 18:10:00,34.9,24.3,29.94,NNE,21,4.0,4.0,65,0.00,,,0.00,Wunderground v.1.15,2013-10-03 02:10:00,
2013-10-02 18:15:00,34.9,23.9,29.94,NNE,16,3.0,4.0,64,0.00,,,0.00,Wunderground v.1.15,2013-10-03 02:15:00,
2013-10-02 18:20:00,34.8,23.9,29.94,NNE,12,3.0,3.0,64,0.00,,,0.00,Wunderground v.1.15,2013-10-03 02:20:00,
2013-10-02 18:30:00,34.7,24.1,29.94,North,360,3.0,3.0,65,0.00,,,0.00,Wunderground v.1.15,2013-10-03 02:30:00,
2013-10-02 18:35:00,34.5,24.3,29.94,North,360,4.0,4.0,66,0.00,,,0.00,Wunderground v.1.15,2013-10-03 02:35:00,
2013-10-02 18:40:00,34.5,24.3,29.94,NNE,31,5.0,5.0,66,0.00,,,0.00,Wunderground v.1.15,2013-10-03 02:40:00,
2013-10-02 18:45:00,34.4,24.2,29.94,NNW,345,5.0,7.0,66,0.00,,,0.00,Wunderground v.1.15,2013-10-03 02:45:00,
2013-10-02 18:50:00,34.2,24.0,29.94,North,355,6.0,6.0,66,0.00,,,0.00,Wunderground v.1.15,2013-10-03 02:50:00,
2013-10-02 18:55:00,34.0,24.2,29.94,North,350,5.0,6.0,67,0.00,,,0.00,Wunderground v.1.15,2013-10-03 02:55:00,
2013-10-02 19:00:00,33.9,24.1,29.94,North,355,5.0,5.0,67,0.00,,,0.00,Wunderground v.1.15,2013-10-03 03:00:00,
2013-10-02 19:05:00,33.7,25.6,29.94,NNE,16,5.0,5.0,72,0.00,,,0.00,Wunderground v.1.15,2013-10-03 03:05:00,
2013-10-02 19:10:00,33.6,24.2,29.94,North,350,5.0,5.0,68,0.00,,,0.00,Wunderground v.1.15,2013-10-03 03:10:00,
2013-10-02 19:15:00,33.5,24.1,29.94,NNE,29,5.0,5.0,68,0.00,,,0.00,Wunderground v.1.15,2013-10-03 03:15:00,
2013-10-02 19:20:00,33.3,23.9,29.94,North,355,4.0,6.0,68,0.00,,,0.00,Wunderground v.1.15,2013-10-03 03:20:00,
2013-10-02 19:25:00,33.2,23.8,29.94,North,5,5.0,6.0,68,0.00,,,0.00,Wunderground v.1.15,2013-10-03 03:25:00,
2013-10-02 19:30:00,33.1,24.0,29.94,North,5,5.0,5.0,69,0.00,,,0.00,Wunderground v.1.15,2013-10-03 03:30:00,
2013-10-02 19:40:00,32.8,23.7,29.94,NNW,346,4.0,6.0,69,0.00,,,0.00,Wunderground v.1.15,2013-10-03 03:40:00,
2013-10-02 19:45:00,32.5,23.8,29.94,NW,321,4.0,6.0,70,0.00,,,0.00,Wunderground v.1.15,2013-10-03 03:45:00,
2013-10-02 19:50:00,32.2,23.5,29.94,North,360,3.0,3.0,70,0.00,,,0.00,Wunderground v.1.15,2013-10-03 03:50:00,
2013-10-02 19:55:00,31.9,23.6,29.94,North,360,2.0,4.0,71,0.00,,,0.00,Wunderground v.1.15,2013-10-03 03:55:00,
2013-10-02 20:00:00,31.5,23.5,29.94,NNW,341,2.0,2.0,72,0.00,,,0.00,Wunderground v.1.15,2013-10-03 04:00:00,
2013-10-02 20:05:00,31.3,23.3,29.94,NNW,341,2.0,2.0,72,0.00,,,0.00,Wunderground v.1.15,2013-10-03 04:05:00,
2013-10-02 20:10:00,30.8,22.8,29.94,NNW,341,1.0,1.0,72,0.00,,,0.00,Wunderground v.1.15,2013-10-03 04:10:00,
2013-10-02 20:15:00,30.4,22.8,29.94,NNW,341,0.0,1.0,73,0.00,,,0.00,Wunderground v.1.15,2013-10-03 04:15:00,
2013-10-02 20:20:00,29.8,22.5,29.94,NNW,341,0.0,0.0,74,0.00,,,0.00,Wunderground v.1.15,2013-10-03 04:20:00,
2013-10-02 20:25:00,29.3,22.4,29.94,NNW,341,0.0,0.0,75,0.00,,,0.00,Wunderground v.1.15,2013-10-03 04:25:00,
2013-10-02 20:30:00,28.9,22.3,29.94,NNW,341,0.0,0.0,76,0.00,,,0.00,Wunderground v.1.15,2013-10-03 04:30:00,
2013-10-02 20:35:00,28.4,22.1,29.94,NNW,341,0.0,0.0,77,0.00,,,0.00,Wunderground v.1.15,2013-10-03 04:35:00,
2013-10-02 20:40:00,28.0,22.0,29.94,NNW,341,0.0,0.0,78,0.00,,,0.00,Wunderground v.1.15,2013-10-03 04:40:00,
2013-10-02 20:45:00,27.6,21.9,29.95,NNW,341,0.0,0.0,79,0.00,,,0.00,Wunderground v.1.15,2013-10-03 04:45:00,
2013-10-02 20:50:00,27.5,21.8,29.94,NNW,341,0.0,0.0,79,0.00,,,0.00,Wunderground v.1.15,2013-10-03 04:50:00,
2013-10-02 20:55:00,27.2,21.5,29.94,NNW,341,0.0,0.0,79,0.00,,,0.00,Wunderground v.1.15,2013-10-03 04:55:00,
2013-10-02 21:00:00,27.0,21.7,29.94,NNW,341,0.0,0.0,80,0.00,,,0.00,Wunderground v.1.15,2013-10-03 05:00:00,
2013-10-02 21:05:00,26.6,21.6,29.94,NNW,341,0.0,0.0,81,0.00,,,0.00,Wunderground v.1.15,2013-10-03 05:05:00,
2013-10-02 21:10:00,26.3,21.3,29.94,NNW,341,0.0,0.0,81,0.00,,,0.00,Wunderground v.1.15,2013-10-03 05:10:00,
2013-10-02 21:15:00,26.0,21.3,29.94,NNW,341,0.0,0.0,82,0.00,,,0.00,Wunderground v.1.15,2013-10-03 05:15:00,
2013-10-02 21:20:00,25.6,20.9,29.94,NNW,341,0.0,0.0,82,0.00,,,0.00,Wunderground v.1.15,2013-10-03 05:20:00,
2013-10-02 21:25:00,25.3,20.9,29.94,NNW,341,0.0,0.0,83,0.00,,,0.00,Wunderground v.1.15,2013-10-03 05:25:00,
2013-10-02 21:30:00,25.0,20.8,29.94,NNW,341,0.0,0.0,84,0.00,,,0.00,Wunderground v.1.15,2013-10-03 05:30:00,
2013-10-02 21:35:00,24.8,20.7,29.94,NNW,341,0.0,0.0,84,0.00,,,0.00,Wunderground v.1.15,2013-10-03 05:35:00,
2013-10-02 21:40:00,24.6,20.7,29.94,NNW,341,0.0,0.0,85,0.00,,,0.00,Wunderground v.1.15,2013-10-03 05:40:00,
2013-10-02 21:45:00,24.3,20.4,29.94,NNW,341,0.0,0.0,85,0.00,,,0.00,Wunderground v.1.15,2013-10-03 05:45:00,
2013-10-02 21:50:00,24.2,20.6,29.94,NNW,341,0.0,0.0,86,0.00,,,0.00,Wunderground v.1.15,2013-10-03 05:50:00,
2013-10-02 21:55:00,23.0,19.7,29.94,ENE,67,0.0,0.0,87,0.00,,,0.00,Wunderground v.1.15,2013-10-03 05:55:00,
2013-10-02 22:00:00,22.8,19.5,29.94,ENE,67,0.0,1.0,87,0.00,,,0.00,Wunderground v.1.15,2013-10-03 06:00:00,
2013-10-02 22:05:00,22.5,18.9,29.94,ENE,67,0.0,1.0,86,0.00,,,0.00,Wunderground v.1.15,2013-10-03 06:05:00,
2013-10-02 22:10:00,22.3,19.3,29.94,ENE,67,0.0,1.0,88,0.00,,,0.00,Wunderground v.1.15,2013-10-03 06:10:00,
2013-10-02 22:15:00,22.1,18.8,29.94,ENE,61,1.0,1.0,87,0.00,,,0.00,Wunderground v.1.15,2013-10-03 06:15:00,
2013-10-02 22:20:00,21.7,18.7,29.94,ENE,59,1.0,1.0,88,0.00,,,0.00,Wunderground v.1.15,2013-10-03 06:20:00,
2013-10-02 22:25:00,21.7,19.0,29.94,ENE,61,1.0,1.0,89,0.00,,,0.00,Wunderground v.1.15,2013-10-03 06:25:00,
2013-10-02 22:30:00,21.6,18.9,29.94,East,80,1.0,2.0,89,0.00,,,0.00,Wunderground v.1.15,2013-10-03 06:30:00,
2013-10-02 22:35:00,21.5,18.8,29.94,East,81,1.0,2.0,89,0.00,,,0.00,Wunderground v.1.15,2013-10-03 06:35:00,
2013-10-02 22:40:00,21.5,19.0,29.94,SSW,193,1.0,2.0,90,0.00,,,0.00,Wunderground v.1.15,2013-10-03 06:40:00,
2013-10-02 22:45:00,21.7,19.2,29.94,South,190,1.0,2.0,90,0.00,,,0.00,Wunderground v.1.15,2013-10-03 06:45:00,
2013-10-02 22:50:00,21.9,19.2,29.94,ESE,123,2.0,2.0,89,0.00,,,0.00,Wunderground v.1.15,2013-10-03 06:50:00,
2013-10-02 22:55:00,21.8,18.8,29.94,SE,130,2.0,2.0,88,0.00,,,0.00,Wunderground v.1.15,2013-10-03 06:55:00,
2013-10-02 23:00:00,21.4,18.4,29.94,SE,130,1.0,1.0,88,0.00,,,0.00,Wunderground v.1.15,2013-10-03 07:00:00,
2013-10-02 23:05:00,21.5,18.8,29.94,SE,130,1.0,1.0,89,0.00,,,0.00,Wunderground v.1.15,2013-10-03 07:05:00,
2013-10-02 23:10:00,21.9,19.4,29.94,SE,130,1.0,2.0,90,0.00,,,0.00,Wunderground v.1.15,2013-10-03 07:10:00,
2013-10-02 23:15:00,22.3,19.6,29.94,SE,126,1.0,2.0,89,0.00,,,0.00,Wunderground v.1.15,2013-10-03 07:15:00,
2013-10-02 23:20:00,22.2,19.2,29.94,SE,129,1.0,1.0,88,0.00,,,0.00,Wunderground v.1.15,2013-10-03 07:20:00,
2013-10-02 23:25:00,22.1,19.1,29.94,SE,130,1.0,1.0,88,0.00,,,0.00,Wunderground v.1.15,2013-10-03 07:25:00,
2013-10-02 23:30:00,21.8,18.8,29.94,SE,133,1.0,1.0,88,0.00,,,0.00,Wunderground v.1.15,2013-10-03 07:30:00,
2013-10-02 23:35:00,21.8,19.1,29.94,South,186,1.0,1.0,89,0.00,,,0.00,Wunderground v.1.15,2013-10-03 07:35:00,
2013-10-02 23:40:00,21.9,18.9,29.94,South,178,1.0,1.0,88,0.00,,,0.00,Wunderground v.1.15,2013-10-03 07:40:00,
2013-10-02 23:45:00,21.8,19.1,29.94,South,178,0.0,1.0,89,0.00,,,0.00,Wunderground v.1.15,2013-10-03 07:45:00,
2013-10-02 23:50:00,21.6,18.9,29.94,South,178,0.0,0.0,89,0.00,,,0.00,Wunderground v.1.15,2013-10-03 07:50:00,
2013-10-02 23:55:00,21.6,19.1,29.94,South,178,0.0,0.0,90,0.00,,,0.00,Wunderground v.1.15,2013-10-03 07:55:00,